PGT457 LTAI-EDDV

Flight info

Callsign PGT457
Flight time N/A
Altitude 36000
Route ROXUK DCT YAA DCT FENER DCT TUDBU DCT ETUBA DCT UPAMA DCT GESBA DCT IB641 DCT OMELO DCT RIKLU DCT DRN DCT RIVSA DCT TORPU DCT OSTRA DCT TADUV DCT DESAR
Aircraft A320/M-SDE3FGHIRWY/LB1

Departure

Time 2026-05-05 10:13
Airport Antalya International Airport (LTAI)

Arrival

Time N/A
Airport Hannover Airport (EDDV)
Time Latitude Longitude Altitude Speed Heading
2026-05-05 09:53 36.89106 30.79572 192 ft 0 kts 276°
2026-05-05 10:00 36.89106 30.79573 192 ft 1 kts 276°
2026-05-05 10:00 36.89104 30.79602 204 ft 4 kts 276°
2026-05-05 10:01 36.89101 30.79635 207 ft 3 kts 276°
2026-05-05 10:01 36.89100 30.79662 207 ft 4 kts 244°
2026-05-05 10:01 36.89118 30.79684 207 ft 4 kts 197°
2026-05-05 10:01 36.89138 30.79689 205 ft 4 kts 193°
2026-05-05 10:02 36.89162 30.79702 199 ft 4 kts 223°
2026-05-05 10:02 36.89177 30.79728 207 ft 4 kts 249°
2026-05-05 10:02 36.89184 30.79760 203 ft 4 kts 269°
2026-05-05 10:02 36.89183 30.79786 203 ft 4 kts 271°
2026-05-05 10:03 36.89185 30.79819 205 ft 4 kts 247°
2026-05-05 10:03 36.89200 30.79846 205 ft 4 kts 216°
2026-05-05 10:03 36.89223 30.79861 192 ft 4 kts 191°
2026-05-05 10:03 36.89232 30.79863 205 ft 3 kts 186°
2026-05-05 10:06 36.89214 30.79863 201 ft 6 kts 173°
2026-05-05 10:06 36.89174 30.79910 199 ft 11 kts 114°
2026-05-05 10:07 36.89163 30.80006 192 ft 10 kts 95°
2026-05-05 10:07 36.89156 30.80088 201 ft 9 kts 96°
2026-05-05 10:07 36.89150 30.80158 192 ft 8 kts 96°
2026-05-05 10:07 36.89145 30.80219 199 ft 7 kts 96°
2026-05-05 10:08 36.89139 30.80283 192 ft 10 kts 96°
2026-05-05 10:08 36.89129 30.80392 205 ft 16 kts 96°
2026-05-05 10:08 36.89117 30.80524 199 ft 14 kts 96°
2026-05-05 10:08 36.89080 30.80621 203 ft 12 kts 156°
2026-05-05 10:09 36.89006 30.80612 204 ft 10 kts 186°
2026-05-05 10:09 36.88945 30.80604 203 ft 8 kts 186°
2026-05-05 10:09 36.88895 30.80598 192 ft 6 kts 186°
2026-05-05 10:09 36.88859 30.80593 197 ft 4 kts 186°
2026-05-05 10:10 36.88834 30.80590 199 ft 4 kts 186°
2026-05-05 10:10 36.88792 30.80585 200 ft 9 kts 186°
2026-05-05 10:10 36.88718 30.80574 192 ft 12 kts 187°
2026-05-05 10:10 36.88620 30.80560 192 ft 16 kts 186°
2026-05-05 10:11 36.88496 30.80543 196 ft 20 kts 186°
2026-05-05 10:11 36.88355 30.80523 192 ft 20 kts 187°
2026-05-05 10:11 36.88227 30.80502 199 ft 18 kts 188°
2026-05-05 10:11 36.88139 30.80560 193 ft 15 kts 103°
2026-05-05 10:12 36.88129 30.80689 189 ft 15 kts 88°
2026-05-05 10:12 36.88197 30.80740 196 ft 12 kts
2026-05-05 10:12 36.88287 30.80752 190 ft 14 kts
2026-05-05 10:12 36.88409 30.80768 193 ft 33 kts
2026-05-05 10:13 36.88877 30.80819 196 ft 99 kts
2026-05-05 10:13 36.89742 30.80951 194 ft 149 kts
2026-05-05 10:13 36.90888 30.81118 407 ft 174 kts
2026-05-05 10:13 36.92115 30.81344 833 ft 187 kts
2026-05-05 10:14 36.93480 30.81557 1277 ft 208 kts 356°
2026-05-05 10:14 36.94996 30.81315 1757 ft 231 kts 347°
2026-05-05 10:14 36.96616 30.80883 2478 ft 242 kts 346°
2026-05-05 10:14 36.98274 30.80446 3278 ft 245 kts 347°
2026-05-05 10:15 36.99966 30.80046 4112 ft 249 kts 349°
2026-05-05 10:15 37.01689 30.79686 4927 ft 253 kts 351°
2026-05-05 10:15 37.03447 30.79357 5718 ft 257 kts 352°
2026-05-05 10:15 37.05227 30.79050 6540 ft 260 kts 353°
2026-05-05 10:16 37.07033 30.78752 7332 ft 263 kts 353°
2026-05-05 10:16 37.08860 30.78456 8093 ft 267 kts 353°
2026-05-05 10:16 37.10714 30.78158 8822 ft 271 kts 353°
2026-05-05 10:16 37.12600 30.77859 9586 ft 275 kts 353°
2026-05-05 10:17 37.14512 30.77557 10249 ft 282 kts 353°
2026-05-05 10:17 37.16543 30.77238 10460 ft 305 kts 353°
2026-05-05 10:17 37.18718 30.76898 10756 ft 323 kts 353°
2026-05-05 10:17 37.20972 30.76545 11364 ft 329 kts 353°
2026-05-05 10:18 37.23250 30.76188 12055 ft 332 kts 353°
2026-05-05 10:18 37.25550 30.75828 12741 ft 335 kts 353°
2026-05-05 10:18 37.27872 30.75463 13432 ft 338 kts 353°
2026-05-05 10:18 37.30215 30.75090 14075 ft 340 kts 353°
2026-05-05 10:19 37.32571 30.74712 14674 ft 342 kts 353°
2026-05-05 10:19 37.34940 30.74330 15289 ft 344 kts 352°
2026-05-05 10:19 37.37318 30.73949 15941 ft 345 kts 352°
2026-05-05 10:19 37.39699 30.73569 16584 ft 345 kts 352°
2026-05-05 10:20 37.42059 30.73066 17231 ft 346 kts 345°
2026-05-05 10:20 37.44366 30.72177 17861 ft 347 kts 343°
2026-05-05 10:20 37.46670 30.71265 18488 ft 347 kts 343°
2026-05-05 10:20 37.48974 30.70350 19006 ft 348 kts 343°
2026-05-05 10:21 37.51288 30.69429 19513 ft 349 kts 342°
2026-05-05 10:21 37.53608 30.68506 20018 ft 350 kts 342°
2026-05-05 10:21 37.55938 30.67581 20510 ft 352 kts 342°
2026-05-05 10:21 37.58275 30.66653 20997 ft 353 kts 342°
2026-05-05 10:22 37.60625 30.65722 21478 ft 355 kts 342°
2026-05-05 10:22 37.62984 30.64782 21957 ft 357 kts 342°
2026-05-05 10:22 37.65356 30.63837 22439 ft 358 kts 341°
2026-05-05 10:22 37.67709 30.62902 22896 ft 360 kts 341°
2026-05-05 10:23 37.70103 30.61951 23334 ft 362 kts 341°
2026-05-05 10:23 37.72512 30.60993 23750 ft 364 kts 341°
2026-05-05 10:23 37.74934 30.60028 24099 ft 366 kts 341°
2026-05-05 10:23 37.77365 30.59059 24450 ft 368 kts 341°
2026-05-05 10:24 37.79816 30.58081 24784 ft 370 kts 341°
2026-05-05 10:24 37.82276 30.57098 25106 ft 372 kts 341°
2026-05-05 10:24 37.84751 30.56107 25429 ft 374 kts 341°
2026-05-05 10:24 37.87240 30.55110 25739 ft 377 kts 341°
2026-05-05 10:25 37.89750 30.54104 26042 ft 378 kts 341°
2026-05-05 10:25 37.92267 30.53092 26340 ft 381 kts 341°
2026-05-05 10:25 37.94800 30.52072 26636 ft 383 kts 341°
2026-05-05 10:25 37.97343 30.51048 26930 ft 385 kts 341°
2026-05-05 10:26 37.99905 30.50018 27198 ft 387 kts 341°
2026-05-05 10:26 38.02477 30.48985 27480 ft 389 kts 341°
2026-05-05 10:26 38.05072 30.47942 27775 ft 392 kts 341°
2026-05-05 10:26 38.07675 30.46896 28081 ft 394 kts 341°
2026-05-05 10:27 38.10289 30.45844 28374 ft 396 kts 341°
2026-05-05 10:27 38.12925 30.44787 28654 ft 397 kts 341°
2026-05-05 10:27 38.15568 30.43724 28901 ft 400 kts 341°
2026-05-05 10:27 38.18223 30.42648 29150 ft 402 kts 341°
2026-05-05 10:28 38.19986 30.41931 29336 ft 403 kts 341°
2026-05-05 10:28 38.22668 30.40839 29584 ft 405 kts 341°
2026-05-05 10:28 38.25363 30.39745 29829 ft 407 kts 341°
2026-05-05 10:28 38.28071 30.38647 30065 ft 409 kts 341°
2026-05-05 10:29 38.30788 30.37545 30280 ft 411 kts 341°
2026-05-05 10:29 38.33513 30.36443 30553 ft 411 kts 341°
2026-05-05 10:29 38.36229 30.35345 30861 ft 410 kts 341°
2026-05-05 10:29 38.38948 30.34244 31140 ft 409 kts 341°
2026-05-05 10:30 38.41659 30.33145 31447 ft 409 kts 341°
2026-05-05 10:30 38.44369 30.32045 31747 ft 408 kts 341°
2026-05-05 10:30 38.47073 30.30945 32032 ft 408 kts 341°
2026-05-05 10:30 38.49774 30.29844 32329 ft 407 kts 341°
2026-05-05 10:31 38.52473 30.28739 32639 ft 407 kts 341°
2026-05-05 10:31 38.55167 30.27638 32918 ft 406 kts 341°
2026-05-05 10:31 38.57864 30.26540 33211 ft 406 kts 341°
2026-05-05 10:31 38.60554 30.25443 33503 ft 405 kts 341°
2026-05-05 10:32 38.63236 30.24346 33789 ft 405 kts 341°
2026-05-05 10:32 38.65920 30.23244 34070 ft 404 kts 341°
2026-05-05 10:32 38.68596 30.22144 34303 ft 404 kts 341°
2026-05-05 10:32 38.71279 30.21039 34501 ft 405 kts 341°
2026-05-05 10:33 38.73959 30.19934 34694 ft 405 kts 341°
2026-05-05 10:33 38.76644 30.18825 34880 ft 406 kts 341°
2026-05-05 10:33 38.79338 30.17717 35065 ft 406 kts 341°
2026-05-05 10:33 38.82029 30.16616 35244 ft 407 kts 341°
2026-05-05 10:34 38.84727 30.15514 35416 ft 407 kts 341°
2026-05-05 10:34 38.87427 30.14407 35585 ft 408 kts 341°
2026-05-05 10:34 38.90131 30.13292 35746 ft 408 kts 341°
2026-05-05 10:34 38.92836 30.12173 35941 ft 408 kts 340°
2026-05-05 10:35 38.98230 30.09933 36045 ft 407 kts 341°
2026-05-05 10:35 39.03575 30.07727 36047 ft 406 kts 341°
2026-05-05 10:36 39.08962 30.05499 36047 ft 407 kts 341°
2026-05-05 10:36 39.14353 30.03261 36049 ft 407 kts 341°
2026-05-05 10:37 39.19743 30.01016 36049 ft 407 kts 340°
2026-05-05 10:37 39.25125 29.98758 36050 ft 407 kts 341°
2026-05-05 10:38 39.30524 29.96505 36046 ft 407 kts 341°
2026-05-05 10:38 39.35914 29.94262 36042 ft 407 kts 341°
2026-05-05 10:39 39.41310 29.92006 36042 ft 407 kts 341°
2026-05-05 10:39 39.46704 29.89746 36044 ft 408 kts 341°
2026-05-05 10:40 39.52110 29.87478 36048 ft 408 kts 341°
2026-05-05 10:40 39.57510 29.85206 36053 ft 409 kts 341°
2026-05-05 10:41 39.62926 29.82925 36057 ft 409 kts 341°
2026-05-05 10:41 39.68338 29.80630 36057 ft 409 kts 341°
2026-05-05 10:42 39.76452 29.77204 36054 ft 409 kts 341°
2026-05-05 10:43 39.81842 29.74926 36056 ft 410 kts 341°
2026-05-05 10:43 39.87266 29.72611 36058 ft 410 kts 339°
2026-05-05 10:44 39.91489 29.69741 36058 ft 410 kts 326°